Weather History for KMLU - February, 2014

Change the Weather History Date:

Monday, February 3, 2014

  Actual Average Record
Temperature  
Mean Temperature 35 °F 48 °F  
Max Temperature 37 °F 59 °F 78 °F (1932)
Min Temperature 33 °F 37 °F 3 °F (1951)
Degree Days  
Heating Degree Days 30 17  
Month to date heating degree days 51 51  
Since 1 July heating degree days 1840 1532  
Cooling Degree Days 0 0  
Month to date cooling degree days 0 0  
Year to date cooling degree days 0 4  
Moisture  
Dew Point 32 °F    
Average Humidity 89    
Maximum Humidity 96    
Minimum Humidity 82    
Precipitation  
Precipitation 0.01 in 0.16 in 1.76 in (1956)
Month to date precipitation 1.51 0.49  
Year to date precipitation 2.36 5.50  
Snow  
Snow 0.00 in - - ()
Month to date snowfall 0.0  
Since 1 July snowfall 0.1  
Snow Depth 0.00 in    
Sea Level Pressure  
Sea Level Pressure 30.22 in    
Wind  
Wind Speed 10 mph (NE)    
Max Wind Speed 20 mph    
Max Gust Speed 24 mph    
Visibility 8 miles    
Events Rain    
T = Trace of Precipitation, MM = Missing Value Source: NWS Daily Summary

Daily Weather History Graph

Daily Weather History Graph

Search for Another Location

Airport or City:

Trip Planner

Search our weather history database for the weather conditions in past years. The results will help you decide how hot, cold, wet, or windy it might be!

Date:

Astronomy

Feb. 03, 2014 Rise Set
Actual Time 7:01 AM CST 5:43 PM CST
Civil Twilight 6:35 AM CST 6:08 PM CST
Nautical Twilight 6:06 AM CST 6:38 PM CST
Astronomical Twilight 5:37 AM CST 7:07 PM CST
Moon 9:20 AM CST (2/3) 10:14 PM CST (2/3)
Length of Visible Light 11h 33m
Length of Day
10h 42m
Waxing Crescent, 20% of the Moon is Illuminated
Feb 3
Waxing Crescent
Feb 6
First Quarter
Feb 14
Full
Feb 22
Last Quarter
Mar 1
New

Hourly Weather History & Observations

Time (CST) Temp. Windchill Dew Point Humidity Pressure Visibility Wind Dir Wind Speed Gust Speed Precip Events Conditions
12:53 AM 35.1 °F 24.8 °F 33.1 °F 92% 30.18 in 5.0 mi North 17.3 mph 24.2 mph 0.00 in Rain Light Rain
1:09 AM 35.6 °F 26.6 °F 32.0 °F 87% 30.18 in 7.0 mi North 13.8 mph 23.0 mph 0.01 in   Overcast
1:31 AM 35.6 °F 27.1 °F 33.8 °F 93% 30.18 in 7.0 mi North 12.7 mph 19.6 mph 0.01 in   Overcast
1:53 AM 35.1 °F 26.4 °F 32.0 °F 89% 30.19 in 9.0 mi North 12.7 mph 18.4 mph 0.01 in   Overcast
2:53 AM 35.1 °F 26.9 °F 32.0 °F 89% 30.21 in 10.0 mi North 11.5 mph 18.4 mph N/A   Overcast
3:18 AM 33.8 °F 25.8 °F 32.0 °F 93% 30.21 in 10.0 mi North 10.4 mph - N/A   Overcast
3:45 AM 33.8 °F 25.8 °F 30.2 °F 87% 30.22 in 10.0 mi North 10.4 mph - N/A   Overcast
3:53 AM 34.0 °F 26.0 °F 30.0 °F 85% 30.22 in 10.0 mi North 10.4 mph - N/A   Overcast
4:23 AM 33.8 °F 27.0 °F 30.2 °F 87% 30.22 in 10.0 mi NNE 8.1 mph - N/A   Overcast
4:53 AM 34.0 °F 26.6 °F 30.0 °F 85% 30.23 in 10.0 mi North 9.2 mph - N/A   Overcast
5:53 AM 34.0 °F 26.6 °F 30.9 °F 89% 30.24 in 10.0 mi North 9.2 mph - N/A   Overcast
6:53 AM 34.0 °F 26.6 °F 30.9 °F 89% 30.25 in 10.0 mi NNE 9.2 mph - N/A   Overcast
7:53 AM 34.0 °F 25.5 °F 30.9 °F 89% 30.26 in 10.0 mi NNE 11.5 mph - N/A   Overcast
8:53 AM 35.1 °F 26.9 °F 32.0 °F 89% 30.28 in 10.0 mi NNE 11.5 mph - N/A   Overcast
9:12 AM 33.8 °F 25.3 °F 30.2 °F 87% 30.28 in 10.0 mi NNE 11.5 mph - N/A   Overcast
9:53 AM 35.1 °F 26.9 °F 30.9 °F 85% 30.29 in 10.0 mi NE 11.5 mph - N/A   Overcast
10:53 AM 35.1 °F 26.9 °F 30.9 °F 85% 30.30 in 10.0 mi NE 11.5 mph - N/A   Overcast
11:53 AM 36.0 °F 28.5 °F 32.0 °F 86% 30.27 in 6.0 mi NE 10.4 mph - N/A   Haze
12:53 PM 36.0 °F 29.0 °F 33.1 °F 89% 30.24 in 10.0 mi NE 9.2 mph - N/A   Haze
1:44 PM 35.6 °F 28.6 °F 32.0 °F 87% 30.23 in 10.0 mi NE 9.2 mph 17.3 mph N/A   Haze
1:53 PM 37.0 °F 31.0 °F 33.1 °F 86% 30.22 in 10.0 mi NE 8.1 mph - N/A   Haze
2:53 PM 37.0 °F 29.8 °F 33.1 °F 86% 30.22 in 10.0 mi NE 10.4 mph - N/A   Haze
3:53 PM 37.0 °F 29.3 °F 33.1 °F 86% 30.22 in 10.0 mi NE 11.5 mph - N/A   Haze
4:53 PM 36.0 °F 28.0 °F 32.0 °F 86% 30.23 in 10.0 mi NE 11.5 mph - N/A   Overcast
5:53 PM 35.1 °F 26.4 °F 30.9 °F 85% 30.22 in 10.0 mi ENE 12.7 mph - N/A   Overcast
6:53 PM 34.0 °F 26.6 °F 30.9 °F 89% 30.22 in 10.0 mi ENE 9.2 mph - N/A   Overcast
7:35 PM 33.8 °F 27.7 °F 30.2 °F 87% 30.21 in 9.0 mi East 6.9 mph - N/A   Overcast
7:53 PM 34.0 °F 26.6 °F 30.9 °F 89% 30.21 in 8.0 mi East 9.2 mph - N/A   Overcast
8:53 PM 34.0 °F 27.2 °F 30.9 °F 89% 30.20 in 9.0 mi ENE 8.1 mph - N/A   Overcast
9:53 PM 33.1 °F 26.9 °F 32.0 °F 96% 30.19 in 4.0 mi NE 6.9 mph - N/A   Overcast
10:12 PM 33.8 °F 25.8 °F 32.0 °F 93% 30.17 in 3.0 mi NE 10.4 mph - N/A   Overcast
10:23 PM 33.8 °F 25.3 °F 32.0 °F 93% 30.17 in 2.5 mi ENE 11.5 mph - N/A   Overcast
10:53 PM 33.1 °F 26.1 °F 32.0 °F 96% 30.17 in 2.0 mi ENE 8.1 mph - N/A   Overcast
11:08 PM 33.8 °F 28.6 °F 32.0 °F 93% 30.16 in 1.8 mi ENE 5.8 mph - N/A   Overcast
11:53 PM 33.1 °F 27.7 °F 32.0 °F 96% 30.16 in 1.2 mi East 5.8 mph - N/A   Overcast